[Iaude] MPEC F88: 2024 FR2 [a=1.43,e=0.29,i=4.7,H=26.0]
    mpec at cfa.harvard.edu 
    mpec at cfa.harvard.edu
       
    Tue Mar 26 16:06:45 EDT 2024
    
    
  
M.P.E.C. 2024-F88                                Issued 2024 March 26, 20:05 UT
     The Minor Planet Electronic Circulars contain information on unusual
         minor planets, routine data on comets and natural satellites,
         and occasional editorial announcements.  They are published
    on behalf of Division F of the International Astronomical Union by the
          Minor Planet Center, Smithsonian Astrophysical Observatory,
                          Cambridge, MA 02138, U.S.A.
			  
             Prepared using the Tamkin Foundation Computer Network
                              MPC at CFA.HARVARD.EDU
            URL https://www.minorplanetcenter.net/    ISSN 1523-6714
                                    2024 FR2                                    
Observations:
     K24F02R* C2024 03 19.33968410 30 59.338-20 33 00.04         20.19wXEF088F52
     K24F02R  C2024 03 19.36194110 31 09.923-20 36 08.52         20.49wXEF088F52
     K24F02R  C2024 03 19.37306910 31 15.203-20 37 42.31               VEF088F52
     K24F02R  C2024 03 19.51987810 32 26.158-20 57 33.37         20.18GVEF088F52
     K24F02R  C2024 03 19.52052710 32 26.556-20 57 39.65         19.44GVEF088F52
     K24F02R  C2024 03 20.07337710 37 51.12 -22 08 20.8                WEF088X09
     K24F02R  C2024 03 20.08269210 37 55.47 -22 09 34.2                WEF088X09
     K24F02R KC2024 03 20.26869310 39 30.280-22 36 46.33         20.29GVEF088I52
     K24F02R KC2024 03 20.27012410 39 30.935-22 36 56.56         19.96GVEF088I52
     K24F02R KC2024 03 20.27296910 39 32.252-22 37 17.90         20.47GVEF088I52
Observer details:
F52 Pan-STARRS 2, Haleakala.  Observers J. Herman, T. Lowe, P. Minguez, A.
    Schultz, I. Smith.  Measurers K. Chambers, T. de Boer, J. Fairlamb, H.
    Gao, M. Huber, C.-C. Lin, E. Magnier, Y. Ramanjooloo, R. Wainscoat, R.
    Weryk.  1.8-m Ritchey-Chretien + CCD.
I52 Steward Observatory, Mt. Lemmon Station.  Observer R. A. Kowalski.
    Measurers T. Beuden, V. F. Carvajal, D. Fay, J. B. Fazekas, D. C. Fuls, A.
    R. Gibbs, A. D. Grauer, H. Groeller, J. K. Hogan, R. A. Kowalski, S. M.
    Larson, G. J. Leonard, D. Rankin, R. L. Seaman, F. C. Shelly, K. W.
    Wierzchos.  1.0-m prime focus + CCD.
X09 Deep Random Survey, Rio Hurtado.  Observers A. Schnabel, D. Ruhela.
    Measurer S. Deen.  0.43-m reflector + CMOS.
Orbital elements:
2024 FR2                                                 Earth MOID = 0.0208 AU
Epoch 2024 Mar. 31.0 TT = JDT 2460400.5                 Bell                    
M  19.63732              (2000.0)            P               Q                  
n   0.57869557     Peri.  167.81183     -0.90092906     -0.43353359             
a   1.4261634      Node   346.44628     +0.39089076     -0.79129930             
e   0.2926691      Incl.    4.74258     +0.18849731     -0.43115431             
P   1.70           H   26.04          G   0.15           U   8                  
Residuals in seconds of arc
240319 F52  0.3+  0.1-    240319 F52  0.8+  1.0-    240320 I52  0.1-  0.2+
240319 F52  0.0   0.2+    240320 X09  0.4-  0.5+    240320 I52  0.2+  0.1+
240319 F52  0.1-  0.0     240320 X09  0.5-  0.7+
240319 F52  0.2-  0.2+    240320 I52  0.1-  0.3-
Ephemeris:
2024 FR2                 a,e,i = 1.43, 0.29, 5                   q = 1.0088
Date    TT    R. A. (2000) Decl.     Delta      r    Elong.  Phase     V
2024 02 25    05 50 55.1 +46 17 18   0.04993 1.0085   110.9    66.5    21.9
...
2024 03 11    08 53 05.2 +08 18 15   0.02962 1.0169   141.9    37.1    19.9
...
2024 03 19    10 27 39.3 -19 41 55   0.03796 1.0288   150.6    28.4    20.3
...
2024 03 25    11 16 22.9 -30 03 34   0.05086 1.0409   148.3    30.2    21.0
2024 03 26    11 22 50.9 -31 08 48   0.05331 1.0431   148.0    30.4    21.1
2024 03 27    11 28 54.6 -32 06 07   0.05582 1.0454   147.8    30.6    21.2
...
2024 04 02    11 58 11.8 -35 47 02   0.07193 1.0607   147.2    30.7    21.8
...
2024 04 10    12 24 06.3 -37 26 50   0.09573 1.0845   148.3    29.0    22.4
...
2024 04 25    12 53 54.6 -36 32 26   0.1476  1.1373   151.0    25.4    23.3
M. P. C. Staff               (C) Copyright 2024 MPC           M.P.E.C. 2024-F88
    
    
More information about the Iaude
mailing list